Tracking 23114 objects as of 16-May-2021
HD Live streaming from Space Station
objects crossing your sky now

STARLINK-2462

Track STARLINK-2462 now!
10-day predictions
STARLINK-2462 is classified as:


NORAD ID: 48121
Int'l Code: 2021-027AF
Perigee: 356.5 km
Apogee: 359.3 km
Inclination: 53.0 °
Period: 91.6 minutes
Semi major axis: 6728 km
RCS: Unknown
Launch date: April 7, 2021
Source: United States (US)
Launch site: AIR FORCE EASTERN TEST RANGE (AFETR)
aabbcc
Your satellite tracking list
Your tracking list is empty




NASA's NSSDC Master Catalog

Two Line Element Set (TLE):
1 48121U 21027AF  21136.58334491  .00601239  00000-0  40476-2 0  9992
2 48121  53.0454 147.0313 0002060  23.8256 159.9814 15.72854974  1822
Source of the keplerian elements: AFSPC